Location: Bakov nad Jizerou
(50.4784°N, 14.9394°E)
Time: 20:21:25
(UTC+00:00)

HJ-1B - Visible Passes

Search period start: 16 January 2022 00:00
Search period end: 26 January 2022 00:00
Orbit: 612 x 662 km, 97.7° (Epoch: 16 January)

Date Brightness Start Highest point End Pass type
(mag) Time Alt. Az. Time Alt. Az. Time Alt. Az.
18 Jan 9.9 06:12:24 10° ENE 06:13:56 12° E 06:15:30 10° ESE visible
19 Jan 8.8 17:42:02 12° N 17:42:02 12° N 17:42:27 10° N visible
20 Jan 8.8 18:04:39 14° N 18:04:39 14° N 18:05:19 10° N visible
21 Jan 8.9 18:27:16 15° N 18:27:16 15° N 18:28:02 10° N visible
22 Jan 10.2 06:07:04 10° ENE 06:07:38 10° E 06:08:13 10° E visible
22 Jan 8.7 17:12:23 12° NNE 17:12:23 12° NNE 17:12:58 10° NNE visible
22 Jan 9.0 18:49:53 15° NNW 18:49:53 15° NNW 18:50:37 10° NNW visible
23 Jan 8.5 17:34:59 16° NNE 17:34:59 16° NNE 17:36:07 10° N visible
23 Jan 9.3 19:12:29 13° NNW 19:12:29 13° NNW 19:13:04 10° NNW visible
24 Jan 8.4 17:57:35 19° N 17:57:35 19° N 17:59:02 10° N visible
24 Jan 9.6 19:35:05 11° NW 19:35:05 11° NW 19:35:21 10° NW visible
25 Jan 8.3 18:20:10 22° N 18:20:10 22° N 18:21:47 10° N visible
